Lapse_Rate
6.1 6.2 6.3 6.5 6.2 5.9 5.7 5.6 5.7 5.7 5.6 5.7 5.8 5.9 6.0 5.8 5.6 5.5 5.4 5.3 5.0 4.8 4.8 4.8 4.6 4.5 4.7 5.0 5.2 5.6 5.5 5.5 5.7 6.0 6.0 5.9 5.9 5.8 5.4 5.5 5.7 5.7 5.6
6.5 6.3 6.3 6.2 6.1 6.1 6.0 5.7 5.5 5.5 5.6 5.7 5.7 5.7 5.7 5.6 5.5 5.5 5.5 5.3 5.0 4.9 5.0 4.8 4.8 4.6 4.6 4.6 5.1 5.3 5.4 5.5 5.6 5.6 5.5 5.4 5.5 5.4 5.3 5.2 5.2 5.6 5.9
6.5 6.3 6.0 5.6 5.5 5.4 5.5 5.5 5.5 5.4 5.3 5.3 5.3 5.4 5.4 5.4 5.5 5.4 5.4 5.5 5.5 5.2 5.0 4.8 4.9 5.0 4.9 4.6 5.2 4.8 4.9 5.0 5.3 5.4 5.8 5.0 4.8 5.2 5.2 5.2 5.2 5.1 5.5
6.2 6.0 5.8 5.6 5.6 5.5 5.3 5.3 5.2 5.1 5.1 5.1 5.2 5.2 5.3 5.3 5.3 5.4 5.5 5.4 5.4 5.4 5.4 5.3 5.2 5.1 5.3 5.2 5.0 4.9 5.1 5.2 5.3 5.3 5.5 5.4 5.5 5.6 5.4 5.2 5.5 5.6 5.5
6.0 5.9 5.7 5.7 5.7 5.6 5.5 5.3 5.2 5.1 5.0 4.9 5.0 5.0 5.2 5.3 5.4 5.6 5.6 5.6 5.6 5.5 5.6 5.7 5.7 5.5 5.5 5.1 5.1 5.2 5.2 5.2 5.2 5.2 5.3 5.5 5.6 5.3 5.2 5.2 5.3 5.9 6.1
6.0 6.1 6.0 6.0 5.9 5.8 5.8 5.6 5.3 5.1 5.1 5.1 5.1 5.2 5.2 5.3 5.4 5.6 5.7 5.8 5.9 5.9 5.8 5.8 5.8 5.8 5.8 5.7 5.7 5.7 5.7 5.9 5.7 5.6 5.5 5.5 5.8 5.7 5.7 5.6 5.9 6.0 6.5
6.6 6.5 6.2 6.1 6.1 6.0 5.7 5.4 5.2 5.1 5.1 5.1 5.1 5.2 5.3 5.4 5.6 5.7 5.8 5.7 5.7 5.8 5.8 5.8 5.8 5.8 5.8 5.7 5.6 5.6 5.5 5.7 6.0 6.0 6.0 5.8 5.8 5.8 5.9 6.0 5.7 6.2 6.6
6.7 6.4 6.2 6.2 6.1 5.9 5.7 5.6 5.5 5.4 5.4 5.5 5.6 5.7 5.8 6.0 6.0 5.9 5.7 5.7 5.6 5.6 5.6 5.7 5.8 5.7 5.7 5.8 5.8 5.6 5.6 5.6 5.5 5.7 6.2 6.3 6.1 6.0 5.9 6.0 6.1 6.1 6.2
6.5 6.3 6.3 6.1 5.9 5.8 5.7 5.7 5.8 5.7 5.8 5.8 5.9 6.0 6.0 5.9 5.7 5.6 5.5 5.3 5.2 5.4 5.3 5.4 5.4 5.5 5.5 5.5 5.7 6.1 6.1 6.0 5.5 5.4 5.4 5.7 6.1 6.0 5.7 5.9 6.1 6.0 6.3
6.3 6.3 6.1 5.8 5.7 5.6 5.6 5.8 6.0 6.0 6.1 6.0 6.0 6.0 5.9 5.9 5.8 5.6 5.5 5.4 5.4 5.4 5.2 5.1 5.1 5.3 5.4 5.3 5.2 5.4 5.7 6.0 6.0 5.9 5.7 5.7 5.7 6.0 6.2 6.0 6.0 6.2 6.0
6.4 6.1 5.9 5.7 5.5 5.7 5.9 6.0 6.2 6.1 6.0 5.9 5.9 5.8 5.6 5.4 5.3 5.3 5.2 5.2 5.3 5.2 5.3 5.3 5.3 5.1 5.1 5.2 5.2 5.3 5.4 5.7 5.8 5.8 6.1 6.1 5.9 5.7 5.8 6.0 6.1 6.1 6.2
6.1 5.9 5.8 5.7 5.7 5.9 6.1 6.1 6.1 6.0 5.9 5.8 5.7 5.4 5.2 5.1 5.1 4.9 4.9 4.8 4.7 4.9 5.1 5.3 5.4 5.5 5.5 5.5 5.5 5.5 5.5 5.5 5.8 6.1 6.0 6.0 6.1 6.2 5.9 5.8 5.9 6.1 6.2
6.0 6.0 6.2 6.0 6.0 6.2 6.0 5.9 5.8 5.8 5.6 5.3 5.1 5.0 5.0 4.9 4.7 4.6 4.5 4.6 4.8 5.0 5.3 5.2 5.3 5.4 5.4 5.5 5.4 5.4 5.5 5.4 5.5 5.8 6.0 5.9 5.8 5.8 5.9 6.0 5.7 5.8 5.9
6.4 6.5 6.2 6.2 6.2 6.1 5.8 5.6 5.6 5.4 5.3 5.2 5.0 4.9 4.8 4.7 4.5 4.5 4.7 4.9 4.8 4.8 4.8 4.9 5.0 5.1 5.2 5.2 5.4 5.4 5.4 5.4 5.3 5.3 5.4 5.6 5.6 5.5 5.4 5.4 5.6 5.5 5.5
6.7 6.3 6.1 6.3 6.0 5.8 5.6 5.6 5.6 5.6 5.3 5.0 4.8 4.6 4.5 4.6 4.8 4.9 4.9 5.0 5.0 5.1 5.2 5.1 5.0 4.9 4.9 4.9 5.0 4.9 5.0 5.1 5.0 4.9 4.9 5.0 5.2 5.4 5.4 5.3 5.3 5.2 5.2
6.4 6.2 6.2 6.1 5.8 5.6 5.7 5.6 5.5 5.2 5.0 4.7 4.6 4.6 4.7 4.9 5.0 5.2 5.2 5.2 5.1 4.9 5.0 4.9 4.9 4.6 4.5 4.7 4.8 4.9 4.9 4.8 4.7 4.7 4.7 4.5 4.7 5.0 5.2 5.3 5.2 5.2 5.2
6.3 6.3 6.1 5.8 5.7 5.6 5.5 5.4 5.2 5.0 4.7 4.7 4.7 4.7 4.8 5.1 5.2 5.3 5.2 5.1 4.9 4.5 4.5 4.5 4.4 4.3 4.4 4.4 4.4 4.4 4.5 4.4 4.3 4.3 4.2 4.3 4.2 4.3 4.5 5.0 5.1 5.0 5.0
6.4 6.1 5.8 5.6 5.6 5.4 5.2 5.0 4.9 4.6 4.7 4.7 4.6 4.6 4.9 5.3 5.3 5.2 4.8 4.6 4.7 4.4 4.0 4.0 3.9 3.6 3.6 3.6 3.7 3.8 4.0 4.6 4.7 4.7 4.6 4.6 4.5 4.5 4.4 4.1 4.3 4.7 4.8
6.1 6.0 5.6 5.5 5.6 5.1 5.1 5.0 4.8 4.8 4.7 4.7 4.7 5.1 5.2 5.3 5.2 4.8 4.2 3.5 3.5 3.8 3.7 3.7 3.6 3.6 3.6 3.6 3.7 3.8 4.0 4.1 4.2 4.3 4.5 4.5 4.5 4.5 4.6 4.7 4.3 4.0 3.9
6.0 6.0 5.4 5.4 5.5 5.3 5.2 4.9 4.9 4.8 4.7 4.8 5.1 4.9 4.9 4.8 4.8 4.0 3.7 3.3 3.4 3.6 3.8 3.7 3.7 3.7 3.7 3.7 3.7 3.9 4.2 4.1 4.0 4.2 4.3 4.1 4.3 4.5 4.7 4.8 4.4 4.3 4.1
6.0 5.5 5.2 5.5 5.5 5.3 5.0 5.0 5.0 4.9 4.9 4.8 4.9 4.9 4.5 4.1 3.9 3.7 3.6 3.8 3.9 3.9 3.8 3.8 3.8 3.8 3.8 3.8 3.8 3.8 4.0 4.2 4.3 4.2 4.3 4.3 4.2 4.4 4.6 4.6 4.3 4.1 3.9
5.5 5.2 5.4 5.6 5.4 5.2 5.1 5.0 4.9 4.8 4.6 4.7 4.9 4.8 4.5 4.3 4.0 3.9 3.9 4.0 4.2 4.1 3.9 3.8 3.9 3.9 3.8 3.9 3.8 3.8 3.8 4.0 4.1 4.1 4.1 4.3 4.1 4.1 4.3 4.4 4.3 4.2 4.0
5.0 5.2 5.4 5.6 5.4 5.3 5.1 5.0 4.7 4.6 4.7 4.8 4.9 4.7 4.4 4.1 4.0 4.2 4.4 4.5 4.5 4.4 4.2 4.1 4.0 3.9 4.1 4.1 3.9 3.8 3.7 3.7 3.7 3.6 3.8 3.9 4.1 4.2 4.3 4.5 4.6 4.5 4.6
5.3 5.3 5.5 5.5 5.4 5.2 5.0 4.8 4.7 4.7 4.8 5.0 5.0 4.6 4.3 4.2 4.4 4.7 4.7 4.5 4.5 4.4 4.3 4.0 4.2 4.3 4.5 4.3 4.1 4.1 4.1 4.1 3.9 3.8 3.8 4.0 3.9 4.3 4.4 4.5 4.8 4.9 4.9
5.2 5.5 5.7 5.6 5.3 5.0 4.8 4.7 4.9 4.8 5.0 5.2 4.9 4.6 4.5 4.7 4.9 4.9 4.8 4.7 4.6 4.4 4.2 4.6 4.8 5.0 4.8 4.6 4.3 4.3 4.3 4.1 4.1 4.1 4.2 4.3 4.2 4.2 4.4 5.0 5.1 5.1 5.2
5.7 5.9 5.7 5.4 5.1 4.9 4.9 5.0 5.0 5.1 5.4 5.3 5.1 4.9 4.8 5.1 5.2 5.1 4.9 4.7 4.6 4.3 4.6 5.0 5.3 5.4 5.2 5.0 4.5 4.8 5.1 4.8 4.6 4.4 4.5 4.7 4.5 4.8 4.9 4.8 5.0 5.1 5.0
Wind_Speed
10 8 8 7 6 5 4 3 3 3 2 3 4 6 6 5 4 3 2 1 2 2 1 1 1 0 1 3 3 3 2 1 2 1 2 1 2 3 5 4 4 5 7
6 9 10 10 8 6 6 4 5 5 5 5 5 6 6 5 5 3 4 4 5 5 3 4 4 2 3 3 2 5 2 0 1 3 2 1 3 2 4 4 4 7 8
9 11 11 10 9 8 7 6 6 6 5 5 6 7 6 6 6 6 5 6 7 7 5 4 6 5 5 5 7 6 4 3 2 2 3 2 3 2 2 2 3 5 8
11 11 10 8 8 7 6 7 7 6 6 6 6 6 6 6 6 6 6 6 6 7 7 8 8 8 7 6 7 7 5 4 4 4 5 5 3 2 3 4 5 2 6
10 9 8 8 8 8 7 6 6 6 6 6 6 5 4 5 5 4 5 5 6 6 6 6 6 10 14 12 5 4 3 4 3 5 6 7 6 7 7 4 5 7 7
9 9 7 7 8 7 6 5 6 5 5 5 6 5 5 5 10 11 8 6 6 6 5 5 6 9 9 11 11 11 9 5 4 3 4 7 8 7 7 5 6 6 6
10 8 7 7 7 7 5 5 5 4 4 5 5 4 4 3 8 9 10 5 5 4 4 4 4 5 7 6 8 9 9 11 9 5 6 7 8 7 9 9 8 7 8
8 7 6 7 6 6 5 5 4 3 4 3 3 3 2 1 3 6 7 4 4 3 3 3 3 4 6 8 7 9 9 9 8 7 8 8 8 9 9 10 11 11 9
6 5 8 8 6 5 5 5 4 3 2 2 1 3 4 3 4 3 6 3 2 1 2 2 3 5 9 13 9 10 12 12 12 16 16 18 19 19 16 9 10 9 10
5 4 6 6 6 5 5 4 2 2 1 1 3 2 3 3 9 4 4 1 1 2 3 5 9 9 14 14 9 10 12 12 10 10 10 11 13 13 18 11 9 9 9
5 5 6 5 5 5 4 2 2 2 2 3 3 3 4 5 5 5 6 3 2 2 4 6 7 13 15 15 15 10 12 12 15 11 9 8 9 9 8 7 9 8 8
6 6 5 5 3 3 5 2 2 3 4 3 1 1 2 4 3 7 7 4 2 2 4 5 7 14 15 16 15 16 19 17 9 9 9 9 8 8 8 7 8 8 10
6 6 4 4 3 3 2 1 1 1 1 1 1 1 2 2 1 3 2 3 2 3 5 9 15 15 14 12 16 18 17 9 8 8 9 9 9 9 10 8 9 10 10
6 5 3 3 3 2 1 0 1 1 1 1 1 1 1 2 2 2 2 3 5 5 9 8 13 16 16 13 11 10 7 6 6 7 9 10 10 9 8 7 6 6 5
5 3 3 4 3 3 2 1 1 1 1 1 1 2 2 3 4 6 5 4 5 6 7 6 7 8 9 9 9 9 9 6 6 6 7 7 8 8 9 7 5 6 8
6 3 2 3 1 1 1 2 5 5 6 2 7 4 3 7 8 9 11 12 13 7 3 6 9 9 9 9 8 8 8 11 8 8 8 8 8 8 8 8 7 7 7
6 3 2 2 2 2 1 3 2 2 4 0 5 7 8 9 9 11 13 12 14 4 5 8 9 9 9 9 8 8 9 8 10 9 8 9 9 9 10 8 8 8 8
4 4 2 2 2 2 3 3 3 2 2 2 5 7 9 11 13 14 13 5 8 5 7 8 9 9 9 10 10 9 9 8 7 8 9 9 9 9 9 9 8 8 7
4 2 1 2 1 2 3 3 3 2 3 4 4 5 9 10 11 14 7 4 7 9 9 9 9 9 10 10 10 10 10 10 10 9 10 10 7 7 11 9 9 11 10
2 2 2 2 1 3 2 2 3 3 4 5 6 7 6 3 7 8 7 6 7 8 8 9 10 10 10 11 11 10 10 11 10 10 9 8 7 6 8 10 8 8 7
2 2 4 1 2 3 2 3 3 4 5 6 7 8 12 7 9 10 9 9 8 8 9 9 10 11 11 11 11 11 11 11 11 10 10 8 6 7 9 7 7 7 7
1 1 1 1 2 2 3 3 4 5 6 6 8 8 11 7 8 8 9 9 9 9 9 10 10 11 11 11 12 12 13 13 12 10 9 8 6 7 8 7 6 6 6
3 2 2 1 1 2 4 4 5 5 6 7 7 8 8 8 8 8 9 9 9 10 10 10 12 12 12 13 13 13 14 13 13 11 9 8 7 6 7 6 7 6 6
3 2 2 2 1 2 4 5 5 6 7 7 8 8 8 8 9 9 10 9 10 11 11 12 12 16 17 17 14 13 12 12 11 10 12 7 7 7 6 7 6 7 6
3 3 2 1 2 3 4 5 5 6 6 7 7 7 8 9 9 9 9 9 10 11 14 14 13 18 21 24 23 22 17 17 14 12 7 10 9 9 7 7 6 5 6
2 3 2 0 3 4 4 5 5 5 6 7 7 7 8 8 8 8 9 10 10 12 16 13 16 23 24 17 18 23 21 17 12 10 7 7 7 5 5 7 8 4 4
Wind_Direction
105 122 124 127 118 122 112 108 82 78 64 52 47 46 42 39 46 59 41 29 323 265 252 112 103 15 103 97 104 78 83 157 196 270 256 290 288 331 338 332 307 310 325
96 98 91 85 79 75 73 63 58 64 55 58 47 49 44 44 44 45 42 38 40 61 70 73 36 11 41 37 67 80 58 15 281 256 255 272 253 286 277 290 304 308 313
105 92 88 87 86 79 74 72 63 68 56 54 58 59 51 44 49 54 64 57 52 40 41 33 31 33 37 35 45 47 28 358 312 262 286 227 262 283 297 267 281 298 303
93 94 95 97 96 89 82 72 63 57 67 64 62 66 62 57 54 56 62 61 55 49 48 53 51 51 39 45 48 38 15 11 352 333 312 306 300 294 273 304 305 285 308
109 112 121 114 106 99 86 79 76 56 56 73 76 65 65 66 53 58 56 64 63 61 47 56 52 60 57 52 49 40 30 26 2 346 328 319 317 324 327 331 304 310 298
115 118 111 99 91 83 78 71 67 66 58 61 60 60 52 56 61 72 74 73 66 56 46 36 50 51 39 35 29 24 20 9 349 324 316 305 300 303 309 322 317 313 305
122 116 121 120 110 96 89 82 72 64 67 61 52 52 61 49 78 89 101 102 97 78 65 48 44 23 11 355 346 340 335 331 318 290 269 270 284 287 298 293 285 278 269
118 139 137 112 112 115 106 94 81 70 70 64 48 40 38 21 108 120 105 99 93 81 75 49 19 343 336 336 321 314 307 301 297 288 262 261 260 273 270 272 276 277 276
143 165 134 126 119 110 97 90 82 82 69 57 353 5 8 321 297 206 136 120 97 45 15 348 325 319 319 328 317 304 300 297 300 282 277 283 283 282 277 280 268 269 274
143 135 110 111 115 106 98 85 74 76 78 360 345 341 2 356 5 311 139 121 99 346 330 321 327 326 322 323 321 309 305 301 298 292 287 280 275 273 274 264 264 258 263
125 109 98 104 106 103 97 82 88 61 9 48 65 43 27 12 353 92 106 96 82 343 325 316 315 316 312 310 306 299 288 298 301 296 287 284 284 282 276 260 252 246 249
107 96 83 86 98 102 97 89 64 48 21 44 84 357 18 11 7 111 111 109 127 308 303 305 301 298 293 294 298 287 291 298 293 294 294 288 282 281 282 276 264 251 243
105 103 106 110 102 70 69 6 4 16 299 280 230 276 340 23 12 1 352 357 340 304 295 292 296 297 293 292 290 292 298 289 288 290 291 291 284 280 277 273 273 265 256
120 126 128 121 77 71 94 249 185 214 233 279 295 299 232 254 277 283 284 312 305 303 304 304 303 303 299 296 300 294 282 265 267 275 284 290 293 289 276 264 267 279 285
125 122 110 82 82 109 99 29 353 291 199 119 135 160 183 259 254 226 234 272 280 277 306 300 301 307 309 303 304 298 293 278 275 272 266 275 283 288 283 274 249 272 280
106 117 97 117 130 132 123 85 60 55 67 197 163 173 231 243 259 255 253 260 269 281 282 288 300 299 292 290 295 300 296 294 286 281 269 263 266 271 276 274 262 254 265
113 138 146 156 173 190 167 166 154 360 34 230 241 259 254 257 271 267 268 275 279 292 272 284 289 290 289 289 286 283 284 285 285 282 278 275 266 260 264 261 262 259 264
134 193 202 218 201 189 198 190 174 189 266 296 275 251 262 260 266 274 279 297 290 263 273 277 284 279 284 287 285 281 281 282 281 279 277 277 268 266 255 250 250 250 256
141 138 240 224 183 204 165 157 173 212 244 260 284 286 261 264 275 275 276 248 276 283 284 281 277 276 278 283 280 277 273 275 274 279 277 278 264 278 271 238 242 240 244
171 92 284 241 155 158 153 192 220 241 262 267 273 269 286 310 293 293 285 269 268 270 275 278 279 276 277 278 278 273 272 271 272 273 275 272 280 272 282 251 231 237 235
99 10 316 264 145 159 214 246 263 266 271 281 277 275 271 279 285 286 285 284 274 276 277 277 281 280 279 279 274 271 269 269 266 266 273 269 259 274 282 235 234 230 234
135 287 288 142 162 232 271 287 287 278 273 280 288 292 289 288 282 281 282 280 276 278 277 277 278 280 281 278 275 271 269 267 264 260 255 250 245 252 270 226 224 225 229
215 254 202 150 247 326 302 289 286 272 280 287 291 295 297 292 291 288 285 282 287 289 287 284 283 284 284 282 272 262 259 256 255 250 241 233 228 234 262 223 224 219 225
200 206 166 85 14 316 299 298 298 285 286 292 292 292 292 293 295 292 290 291 295 296 296 295 295 287 282 281 285 283 275 266 256 249 239 219 219 223 251 237 217 222 232
176 160 142 73 324 309 304 294 293 294 297 292 297 300 299 300 298 300 299 301 300 302 301 300 294 291 296 300 293 293 308 292 258 255 229 202 209 218 232 246 198 212 222
171 151 123 10 279 272 272 284 294 302 301 301 302 299 297 299 300 302 305 306 307 310 311 307 306 308 314 324 334 320 311 286 290 235 219 189 193 203 216 250 195 191 209